Time,TemperatureF,DewpointF,PressureIn,WindDirection,WindDirectionDegrees,WindSpeedMPH,WindSpeedGustMPH,Humidity,HourlyPrecipIn,Conditions,Clouds,dailyrainin,SoftwareType,DateUTC
2013-03-17 00:00:00,67.0,61.3,29.78,South,186,5.8,5.8,82,0.00,CLR,,0.00,WeatherDisplay:10.37,2013-03-17 05:00:00,
2013-03-17 00:05:00,66.9,61.2,29.78,SW,225,9.2,9.2,82,0.00,CLR,,0.00,WeatherDisplay:10.37,2013-03-17 05:05:00,
2013-03-17 00:10:00,66.8,61.1,29.78,SW,217,4.6,4.6,82,0.00,CLR,,0.00,WeatherDisplay:10.37,2013-03-17 05:10:00,
2013-03-17 00:15:00,66.8,61.1,29.78,South,181,3.5,3.5,82,0.00,CLR,,0.00,WeatherDisplay:10.37,2013-03-17 05:15:00,
2013-03-17 00:20:00,66.7,61.0,29.78,SSW,203,11.5,11.5,82,0.00,CLR,,0.00,WeatherDisplay:10.37,2013-03-17 05:20:00,
2013-03-17 00:25:00,66.7,61.0,29.78,South,173,3.5,3.5,82,0.00,CLR,,0.00,WeatherDisplay:10.37,2013-03-17 05:25:00,
2013-03-17 00:30:00,66.6,60.9,29.78,SSE,157,5.8,5.8,82,0.00,CLR,,0.00,WeatherDisplay:10.37,2013-03-17 05:30:00,
2013-03-17 00:35:00,66.5,61.2,29.78,South,174,9.2,9.2,83,0.00,CLR,,0.00,WeatherDisplay:10.37,2013-03-17 05:35:00,
2013-03-17 00:40:00,66.5,61.2,29.78,SSW,208,6.9,6.9,83,0.00,CLR,,0.00,WeatherDisplay:10.37,2013-03-17 05:40:00,
2013-03-17 00:45:00,66.4,61.1,29.77,South,176,3.5,3.5,83,0.00,CLR,,0.00,WeatherDisplay:10.37,2013-03-17 05:45:00,
2013-03-17 00:50:00,66.4,61.1,29.77,SE,127,5.0,5.0,83,0.00,CLR,,0.00,WeatherDisplay:10.37,2013-03-17 05:50:00,
2013-03-17 00:55:00,66.3,61.0,29.77,East,100,8.1,8.1,83,0.00,CLR,,0.00,WeatherDisplay:10.37,2013-03-17 05:55:00,
2013-03-17 01:00:00,66.3,61.0,29.77,SW,217,8.1,8.1,83,0.00,CLR,,0.00,WeatherDisplay:10.37,2013-03-17 06:00:00,
2013-03-17 01:05:00,66.2,60.9,29.77,SSE,168,9.2,9.2,83,0.00,CLR,,0.00,WeatherDisplay:10.37,2013-03-17 06:05:00,
2013-03-17 01:10:00,66.2,60.9,29.77,SE,138,6.9,6.9,83,0.00,CLR,,0.00,WeatherDisplay:10.37,2013-03-17 06:10:00,
2013-03-17 01:15:00,66.1,60.8,29.77,SSE,158,8.0,8.0,83,0.00,CLR,,0.00,WeatherDisplay:10.37,2013-03-17 06:15:00,
2013-03-17 01:20:00,66.1,60.8,29.77,SW,215,6.9,6.9,83,0.00,CLR,,0.00,WeatherDisplay:10.37,2013-03-17 06:20:00,
2013-03-17 01:25:00,66.1,60.8,29.77,SSE,163,10.4,10.4,83,0.00,CLR,,0.00,WeatherDisplay:10.37,2013-03-17 06:25:00,
2013-03-17 01:30:00,66.1,61.1,29.77,SSW,198,6.9,6.9,84,0.00,CLR,,0.00,WeatherDisplay:10.37,2013-03-17 06:30:00,
2013-03-17 01:35:00,66.1,61.1,29.77,WSW,249,6.9,6.9,84,0.00,CLR,,0.00,WeatherDisplay:10.37,2013-03-17 06:35:00,
2013-03-17 01:40:00,66.1,61.1,29.77,SSW,199,8.1,8.1,84,0.00,CLR,,0.00,WeatherDisplay:10.37,2013-03-17 06:40:00,
2013-03-17 01:45:00,66.1,61.1,29.77,SSE,165,11.5,11.5,84,0.00,CLR,,0.00,WeatherDisplay:10.37,2013-03-17 06:45:00,
2013-03-17 01:50:00,66.1,61.1,29.77,SW,222,3.5,3.5,84,0.00,CLR,,0.00,WeatherDisplay:10.37,2013-03-17 06:50:00,
2013-03-17 01:55:00,66.1,61.1,29.77,South,180,7.0,7.0,84,0.00,CLR,,0.00,WeatherDisplay:10.37,2013-03-17 06:55:00,
2013-03-17 02:00:00,66.1,61.1,29.77,SSW,192,4.6,4.6,84,0.00,CLR,,0.00,WeatherDisplay:10.37,2013-03-17 07:00:00,
2013-03-17 02:05:00,66.1,61.1,29.77,SSE,153,4.0,4.0,84,0.00,CLR,,0.00,WeatherDisplay:10.37,2013-03-17 07:05:00,
2013-03-17 02:10:00,66.1,61.1,29.77,SSE,167,5.8,5.8,84,0.00,CLR,,0.00,WeatherDisplay:10.37,2013-03-17 07:10:00,
2013-03-17 02:15:00,66.0,61.0,29.77,SSE,163,6.9,6.9,84,0.00,CLR,,0.00,WeatherDisplay:10.37,2013-03-17 07:15:00,
2013-03-17 02:20:00,66.0,61.0,29.76,SSE,162,5.8,5.8,84,0.00,CLR,,0.00,WeatherDisplay:10.37,2013-03-17 07:20:00,
2013-03-17 02:25:00,66.0,61.0,29.76,WSW,249,6.9,6.9,84,0.00,CLR,,0.00,WeatherDisplay:10.37,2013-03-17 07:25:00,
2013-03-17 02:30:00,66.0,61.0,29.76,SSE,152,11.5,11.5,84,0.00,CLR,,0.00,WeatherDisplay:10.37,2013-03-17 07:30:00,
2013-03-17 02:35:00,66.0,61.0,29.76,SSW,193,6.9,6.9,84,0.00,CLR,,0.00,WeatherDisplay:10.37,2013-03-17 07:35:00,
2013-03-17 02:40:00,66.0,61.0,29.76,SSE,152,9.2,9.2,84,0.00,CLR,,0.00,WeatherDisplay:10.37,2013-03-17 07:40:00,
2013-03-17 02:45:00,66.0,61.0,29.75,ESE,121,9.2,9.2,84,0.00,CLR,,0.00,WeatherDisplay:10.37,2013-03-17 07:45:00,
2013-03-17 02:50:00,66.0,61.0,29.75,SSW,195,3.5,3.5,84,0.00,CLR,,0.00,WeatherDisplay:10.37,2013-03-17 07:50:00,
2013-03-17 02:55:00,66.0,61.0,29.75,SSE,161,11.5,11.5,84,0.00,CLR,,0.00,WeatherDisplay:10.37,2013-03-17 07:55:00,
2013-03-17 03:00:00,65.9,60.9,29.75,SSE,158,6.0,6.0,84,0.00,CLR,,0.00,WeatherDisplay:10.37,2013-03-17 08:00:00,
2013-03-17 03:05:00,65.9,60.9,29.75,SSE,167,6.9,6.9,84,0.00,CLR,,0.00,WeatherDisplay:10.37,2013-03-17 08:05:00,
2013-03-17 03:10:00,65.9,60.9,29.75,SSW,207,7.0,7.0,84,0.00,CLR,,0.00,WeatherDisplay:10.37,2013-03-17 08:10:00,
2013-03-17 03:15:00,65.9,60.9,29.74,South,182,4.6,4.6,84,0.00,CLR,,0.00,WeatherDisplay:10.37,2013-03-17 08:15:00,
2013-03-17 03:20:00,65.9,60.9,29.74,SSE,168,6.9,6.9,84,0.00,CLR,,0.00,WeatherDisplay:10.37,2013-03-17 08:20:00,
2013-03-17 03:25:00,65.9,60.9,29.74,SSW,196,3.5,3.5,84,0.00,CLR,,0.00,WeatherDisplay:10.37,2013-03-17 08:25:00,
2013-03-17 03:30:00,65.9,60.9,29.74,SSE,166,11.5,11.5,84,0.00,CLR,,0.00,WeatherDisplay:10.37,2013-03-17 08:30:00,
2013-03-17 03:35:00,65.8,60.8,29.74,SW,232,3.5,3.5,84,0.00,CLR,,0.00,WeatherDisplay:10.37,2013-03-17 08:35:00,
2013-03-17 03:40:00,65.8,60.8,29.74,East,89,3.5,3.5,84,0.00,CLR,,0.00,WeatherDisplay:10.37,2013-03-17 08:40:00,
2013-03-17 03:45:00,65.8,60.8,29.74,South,179,3.5,3.5,84,0.00,CLR,,0.00,WeatherDisplay:10.37,2013-03-17 08:45:00,
2013-03-17 03:50:00,65.8,60.8,29.74,West,275,10.4,10.4,84,0.00,CLR,,0.00,WeatherDisplay:10.37,2013-03-17 08:50:00,
2013-03-17 03:55:00,65.8,60.8,29.73,SSW,193,6.9,6.9,84,0.00,CLR,,0.00,WeatherDisplay:10.37,2013-03-17 08:55:00,
2013-03-17 04:00:00,65.8,60.8,29.73,SW,221,4.6,4.6,84,0.00,CLR,,0.00,WeatherDisplay:10.37,2013-03-17 09:00:00,
2013-03-17 04:05:00,65.8,60.8,29.73,South,190,3.5,3.5,84,0.00,CLR,,0.00,WeatherDisplay:10.37,2013-03-17 09:05:00,
2013-03-17 04:10:00,65.8,61.2,29.73,South,190,5.8,5.8,85,0.00,CLR,,0.00,WeatherDisplay:10.37,2013-03-17 09:10:00,
2013-03-17 04:15:00,65.8,61.2,29.72,South,174,2.3,2.3,85,0.00,CLR,,0.00,WeatherDisplay:10.37,2013-03-17 09:15:00,
2013-03-17 04:20:00,65.7,61.1,29.72,SW,228,4.6,4.6,85,0.00,CLR,,0.00,WeatherDisplay:10.37,2013-03-17 09:20:00,
2013-03-17 04:25:00,65.7,61.1,29.72,SSW,202,3.5,3.5,85,0.00,CLR,,0.00,WeatherDisplay:10.37,2013-03-17 09:25:00,
2013-03-17 04:30:00,65.7,61.1,29.72,WSW,239,2.3,2.3,85,0.00,CLR,,0.00,WeatherDisplay:10.37,2013-03-17 09:30:00,
2013-03-17 04:35:00,65.7,61.1,29.72,ESE,116,6.9,6.9,85,0.00,CLR,,0.00,WeatherDisplay:10.37,2013-03-17 09:35:00,
2013-03-17 04:40:00,65.7,61.1,29.72,SW,221,3.5,3.5,85,0.00,CLR,,0.00,WeatherDisplay:10.37,2013-03-17 09:40:00,
2013-03-17 04:45:00,65.6,61.0,29.72,SW,224,3.5,3.5,85,0.00,CLR,,0.00,WeatherDisplay:10.37,2013-03-17 09:45:00,
2013-03-17 04:50:00,65.6,61.0,29.72,South,186,5.8,5.8,85,0.00,CLR,,0.00,WeatherDisplay:10.37,2013-03-17 09:50:00,
2013-03-17 04:55:00,65.6,61.3,29.72,SSE,164,8.1,8.1,86,0.00,CLR,,0.00,WeatherDisplay:10.37,2013-03-17 09:55:00,
2013-03-17 05:00:00,65.6,61.3,29.72,SSE,156,5.8,5.8,86,0.00,CLR,,0.00,WeatherDisplay:10.37,2013-03-17 10:00:00,
2013-03-17 05:05:00,65.5,61.2,29.72,SW,230,3.5,3.5,86,0.00,CLR,,0.00,WeatherDisplay:10.37,2013-03-17 10:05:00,
2013-03-17 05:10:00,65.5,61.2,29.72,South,181,4.6,4.6,86,0.00,CLR,,0.00,WeatherDisplay:10.37,2013-03-17 10:10:00,
2013-03-17 05:15:00,65.5,61.2,29.72,SSE,157,5.8,5.8,86,0.00,CLR,,0.00,WeatherDisplay:10.37,2013-03-17 10:15:00,
2013-03-17 05:20:00,65.5,61.2,29.72,SSW,194,5.8,5.8,86,0.00,CLR,,0.00,WeatherDisplay:10.37,2013-03-17 10:20:00,
2013-03-17 05:25:00,65.5,61.2,29.72,SSE,165,8.0,8.0,86,0.00,CLR,,0.00,WeatherDisplay:10.37,2013-03-17 10:25:00,
2013-03-17 05:30:00,65.4,61.1,29.72,SSE,157,5.8,5.8,86,0.00,CLR,,0.00,WeatherDisplay:10.37,2013-03-17 10:30:00,
2013-03-17 05:35:00,65.4,61.1,29.72,SW,215,3.5,3.5,86,0.00,CLR,,0.00,WeatherDisplay:10.37,2013-03-17 10:35:00,
2013-03-17 05:40:00,65.4,61.1,29.72,SE,138,4.6,4.6,86,0.00,CLR,,0.00,WeatherDisplay:10.37,2013-03-17 10:40:00,
2013-03-17 05:45:00,65.4,61.1,29.72,SE,138,6.9,6.9,86,0.00,CLR,,0.00,WeatherDisplay:10.37,2013-03-17 10:45:00,
2013-03-17 05:50:00,65.4,61.1,29.71,South,174,3.5,3.5,86,0.00,CLR,,0.00,WeatherDisplay:10.37,2013-03-17 10:50:00,
2013-03-17 05:55:00,65.4,61.1,29.71,South,184,3.5,3.5,86,0.00,CLR,,0.00,WeatherDisplay:10.37,2013-03-17 10:55:00,
2013-03-17 06:00:00,65.4,61.1,29.72,SSW,194,3.5,3.5,86,0.00,CLR,,0.00,WeatherDisplay:10.37,2013-03-17 11:00:00,
2013-03-17 06:05:00,65.4,61.1,29.71,SSE,165,5.8,5.8,86,0.00,CLR,,0.00,WeatherDisplay:10.37,2013-03-17 11:05:00,
2013-03-17 06:10:00,65.3,61.0,29.71,South,171,4.6,4.6,86,0.00,CLR,,0.00,WeatherDisplay:10.37,2013-03-17 11:10:00,
2013-03-17 06:15:00,65.4,61.1,29.71,SSW,205,3.5,3.5,86,0.00,CLR,,0.00,WeatherDisplay:10.37,2013-03-17 11:15:00,
2013-03-17 06:20:00,65.3,61.0,29.71,South,169,4.6,4.6,86,0.00,CLR,,0.00,WeatherDisplay:10.37,2013-03-17 11:20:00,
2013-03-17 06:25:00,65.3,61.0,29.71,SSW,206,2.0,0.0,86,0.00,CLR,,0.00,WeatherDisplay:10.37,2013-03-17 11:25:00,
2013-03-17 06:30:00,65.3,61.0,29.71,South,190,2.3,2.3,86,0.00,CLR,,0.00,WeatherDisplay:10.37,2013-03-17 11:30:00,
2013-03-17 06:35:00,65.3,61.0,29.72,South,184,3.5,3.5,86,0.00,CLR,,0.00,WeatherDisplay:10.37,2013-03-17 11:35:00,
2013-03-17 06:40:00,65.3,61.0,29.72,SSE,161,4.6,4.6,86,0.00,CLR,,0.00,WeatherDisplay:10.37,2013-03-17 11:40:00,
2013-03-17 06:45:00,65.3,61.0,29.72,South,189,5.8,5.8,86,0.00,CLR,,0.00,WeatherDisplay:10.37,2013-03-17 11:45:00,
2013-03-17 06:50:00,65.3,61.0,29.72,SE,132,3.5,3.5,86,0.00,CLR,,0.00,WeatherDisplay:10.37,2013-03-17 11:50:00,
2013-03-17 06:55:00,65.3,61.0,29.72,SSW,202,5.8,5.8,86,0.00,CLR,,0.00,WeatherDisplay:10.37,2013-03-17 11:55:00,
2013-03-17 07:00:00,65.3,61.0,29.72,SE,141,1.1,1.1,86,0.00,CLR,,0.00,WeatherDisplay:10.37,2013-03-17 12:00:00,
2013-03-17 07:05:00,65.3,61.0,29.72,South,186,5.0,5.0,86,0.00,CLR,,0.00,WeatherDisplay:10.37,2013-03-17 12:05:00,
2013-03-17 07:10:00,65.3,61.0,29.72,South,169,3.5,3.5,86,0.00,CLR,,0.00,WeatherDisplay:10.37,2013-03-17 12:10:00,
2013-03-17 07:15:00,65.3,61.0,29.72,SE,144,3.0,3.0,86,0.00,CLR,,0.00,WeatherDisplay:10.37,2013-03-17 12:15:00,
2013-03-17 07:20:00,65.3,61.0,29.72,SW,220,3.5,3.5,86,0.00,CLR,,0.00,WeatherDisplay:10.37,2013-03-17 12:20:00,
2013-03-17 07:25:00,65.3,61.0,29.73,South,183,3.5,3.5,86,0.00,CLR,,0.00,WeatherDisplay:10.37,2013-03-17 12:25:00,
2013-03-17 07:30:00,65.3,61.0,29.73,SSW,208,5.0,5.0,86,0.00,CLR,,0.00,WeatherDisplay:10.37,2013-03-17 12:30:00,
2013-03-17 07:35:00,65.3,61.0,29.73,SE,142,4.0,4.0,86,0.00,CLR,,0.00,WeatherDisplay:10.37,2013-03-17 12:35:00,
2013-03-17 07:40:00,65.3,61.0,29.73,South,181,0.0,1.0,86,0.00,CLR,,0.00,WeatherDisplay:10.37,2013-03-17 12:40:00,
2013-03-17 07:45:00,65.4,61.1,29.73,South,173,3.0,3.0,86,0.00,CLR,,0.00,WeatherDisplay:10.37,2013-03-17 12:45:00,
2013-03-17 07:50:00,65.3,61.0,29.73,SE,146,2.3,2.3,86,0.00,CLR,,0.00,WeatherDisplay:10.37,2013-03-17 12:50:00,
2013-03-17 07:55:00,65.4,61.1,29.73,SW,221,4.0,4.0,86,0.00,CLR,,0.00,WeatherDisplay:10.37,2013-03-17 12:55:00,
2013-03-17 08:00:00,65.4,61.1,29.73,SSW,194,3.5,3.5,86,0.00,CLR,,0.00,WeatherDisplay:10.37,2013-03-17 13:00:00,
2013-03-17 08:05:00,65.4,61.1,29.74,SE,143,4.6,4.6,86,0.00,CLR,,0.00,WeatherDisplay:10.37,2013-03-17 13:05:00,
2013-03-17 08:10:00,65.4,61.1,29.73,South,188,3.5,3.5,86,0.00,CLR,,0.00,WeatherDisplay:10.37,2013-03-17 13:10:00,
2013-03-17 08:15:00,65.5,61.2,29.73,South,183,3.5,3.5,86,0.00,CLR,,0.00,WeatherDisplay:10.37,2013-03-17 13:15:00,
2013-03-17 08:20:00,65.5,61.2,29.73,SSW,209,1.1,1.1,86,0.00,CLR,,0.00,WeatherDisplay:10.37,2013-03-17 13:20:00,
2013-03-17 08:25:00,65.5,61.5,29.73,ESE,117,1.1,1.1,87,0.00,CLR,,0.00,WeatherDisplay:10.37,2013-03-17 13:25:00,
2013-03-17 08:30:00,65.6,61.3,29.73,SSW,199,3.5,3.5,86,0.00,CLR,,0.00,WeatherDisplay:10.37,2013-03-17 13:30:00,
2013-03-17 08:35:00,65.6,61.3,29.73,NW,324,2.3,2.3,86,0.00,CLR,,0.00,WeatherDisplay:10.37,2013-03-17 13:35:00,
2013-03-17 08:40:00,65.7,61.4,29.73,SSE,149,3.5,3.5,86,0.00,CLR,,0.00,WeatherDisplay:10.37,2013-03-17 13:40:00,
2013-03-17 08:45:00,65.8,61.5,29.73,SE,128,7.0,7.0,86,0.00,CLR,,0.00,WeatherDisplay:10.37,2013-03-17 13:45:00,
2013-03-17 08:50:00,65.9,61.6,29.74,South,180,3.5,3.5,86,0.00,CLR,,0.00,WeatherDisplay:10.37,2013-03-17 13:50:00,
2013-03-17 08:55:00,66.0,61.7,29.74,SSW,196,5.0,5.0,86,0.00,CLR,,0.00,WeatherDisplay:10.37,2013-03-17 13:55:00,
2013-03-17 09:00:00,66.1,61.8,29.74,SW,221,2.3,2.3,86,0.00,CLR,,0.00,WeatherDisplay:10.37,2013-03-17 14:00:00,
2013-03-17 09:05:00,66.2,61.9,29.74,SSE,157,4.6,4.6,86,0.00,CLR,,0.00,WeatherDisplay:10.37,2013-03-17 14:05:00,
2013-03-17 09:10:00,66.4,61.8,29.74,ESE,104,3.5,3.5,85,0.00,CLR,,0.00,WeatherDisplay:10.37,2013-03-17 14:10:00,
2013-03-17 09:15:00,66.5,61.8,29.74,South,182,2.3,2.3,85,0.00,CLR,,0.00,WeatherDisplay:10.37,2013-03-17 14:15:00,
2013-03-17 09:20:00,66.7,62.0,29.74,SW,216,3.5,3.5,85,0.00,CLR,,0.00,WeatherDisplay:10.37,2013-03-17 14:20:00,
2013-03-17 09:25:00,66.8,61.8,29.74,South,170,5.8,5.8,84,0.00,CLR,,0.00,WeatherDisplay:10.37,2013-03-17 14:25:00,
2013-03-17 09:30:00,66.8,61.8,29.74,SSW,208,6.9,6.9,84,0.00,CLR,,0.00,WeatherDisplay:10.37,2013-03-17 14:30:00,
2013-03-17 09:35:00,66.9,61.9,29.74,SSE,161,1.1,0.0,84,0.00,CLR,,0.00,WeatherDisplay:10.37,2013-03-17 14:35:00,
2013-03-17 09:40:00,67.0,62.0,29.74,South,170,3.5,3.5,84,0.00,CLR,,0.00,WeatherDisplay:10.37,2013-03-17 14:40:00,
2013-03-17 09:45:00,67.2,61.9,29.74,ESE,123,3.5,3.5,83,0.00,CLR,,0.00,WeatherDisplay:10.37,2013-03-17 14:45:00,
2013-03-17 09:50:00,67.3,62.0,29.74,South,184,3.5,3.5,83,0.00,CLR,,0.00,WeatherDisplay:10.37,2013-03-17 14:50:00,
2013-03-17 09:55:00,67.4,62.1,29.74,SSW,192,4.6,4.6,83,0.00,CLR,,0.00,WeatherDisplay:10.37,2013-03-17 14:55:00,
2013-03-17 10:00:00,67.5,62.2,29.74,SSE,158,3.5,3.5,83,0.00,CLR,,0.00,WeatherDisplay:10.37,2013-03-17 15:00:00,
2013-03-17 10:05:00,67.6,61.9,29.74,SE,141,7.0,7.0,82,0.00,CLR,,0.00,WeatherDisplay:10.37,2013-03-17 15:05:00,
2013-03-17 10:10:00,67.8,62.1,29.74,ESE,119,2.3,2.3,82,0.00,CLR,,0.00,WeatherDisplay:10.37,2013-03-17 15:10:00,
2013-03-17 10:15:00,68.0,61.9,29.74,SSW,193,8.1,8.1,81,0.00,CLR,,0.00,WeatherDisplay:10.37,2013-03-17 15:15:00,
2013-03-17 10:20:00,68.2,62.1,29.74,ESE,112,2.3,2.3,81,0.00,CLR,,0.00,WeatherDisplay:10.37,2013-03-17 15:20:00,
2013-03-17 10:25:00,68.3,61.9,29.74,South,177,3.5,3.5,80,0.00,CLR,,0.00,WeatherDisplay:10.37,2013-03-17 15:25:00,
2013-03-17 10:30:00,68.5,62.1,29.75,SE,126,6.9,6.9,80,0.00,CLR,,0.00,WeatherDisplay:10.37,2013-03-17 15:30:00,
2013-03-17 10:35:00,68.6,61.8,29.75,South,184,4.6,4.6,79,0.00,CLR,,0.00,WeatherDisplay:10.37,2013-03-17 15:35:00,
2013-03-17 10:40:00,68.8,62.0,29.75,WSW,255,0.0,0.0,79,0.00,CLR,,0.00,WeatherDisplay:10.37,2013-03-17 15:40:00,
2013-03-17 10:45:00,68.9,61.8,29.75,SSW,200,3.5,3.5,78,0.00,CLR,,0.00,WeatherDisplay:10.37,2013-03-17 15:45:00,
2013-03-17 10:50:00,69.0,61.9,29.75,SW,227,3.5,3.5,78,0.00,CLR,,0.00,WeatherDisplay:10.37,2013-03-17 15:50:00,
2013-03-17 10:55:00,69.1,61.6,29.76,South,186,4.6,4.6,77,0.00,CLR,,0.00,WeatherDisplay:10.37,2013-03-17 15:55:00,
2013-03-17 11:00:00,69.1,61.6,29.77,SW,224,5.8,5.8,77,0.00,CLR,,0.00,WeatherDisplay:10.37,2013-03-17 16:00:00,
2013-03-17 11:05:00,69.2,61.7,29.77,WSW,240,3.5,3.5,77,0.00,CLR,,0.00,WeatherDisplay:10.37,2013-03-17 16:05:00,
2013-03-17 11:10:00,69.3,61.8,29.77,SE,128,2.3,2.3,77,0.00,CLR,,0.00,WeatherDisplay:10.37,2013-03-17 16:10:00,
2013-03-17 11:15:00,69.4,61.5,29.77,South,185,3.5,3.5,76,0.00,CLR,,0.00,WeatherDisplay:10.37,2013-03-17 16:15:00,
2013-03-17 11:20:00,69.6,61.7,29.76,SSE,156,4.6,4.6,76,0.00,CLR,,0.00,WeatherDisplay:10.37,2013-03-17 16:20:00,
2013-03-17 11:25:00,69.8,61.9,29.76,South,180,3.5,3.5,76,0.00,CLR,,0.00,WeatherDisplay:10.37,2013-03-17 16:25:00,
2013-03-17 11:30:00,70.1,61.8,29.75,South,174,4.0,4.0,75,0.00,CLR,,0.00,WeatherDisplay:10.37,2013-03-17 16:30:00,
2013-03-17 11:35:00,70.3,62.0,29.75,SSW,202,5.8,5.8,75,0.00,CLR,,0.00,WeatherDisplay:10.37,2013-03-17 16:35:00,
2013-03-17 11:40:00,70.6,61.9,29.75,WNW,298,5.8,5.8,74,0.00,CLR,,0.00,WeatherDisplay:10.37,2013-03-17 16:40:00,
2013-03-17 11:45:00,71.0,61.9,29.75,SSE,156,6.9,6.9,73,0.00,CLR,,0.00,WeatherDisplay:10.37,2013-03-17 16:45:00,
2013-03-17 11:50:00,71.4,61.9,29.75,SW,222,8.1,8.1,72,0.00,CLR,,0.00,WeatherDisplay:10.37,2013-03-17 16:50:00,
2013-03-17 11:55:00,71.9,62.0,29.75,SE,140,5.0,5.0,71,0.00,CLR,,0.00,WeatherDisplay:10.37,2013-03-17 16:55:00,
2013-03-17 12:00:00,72.2,61.9,29.76,South,185,3.5,3.5,70,0.00,CLR,,0.00,WeatherDisplay:10.37,2013-03-17 17:00:00,
2013-03-17 12:05:00,72.3,62.0,29.76,SSW,204,3.5,3.5,70,0.00,CLR,,0.00,WeatherDisplay:10.37,2013-03-17 17:05:00,
2013-03-17 12:10:00,72.4,61.7,29.76,SSW,208,2.3,2.3,69,0.00,CLR,,0.00,WeatherDisplay:10.37,2013-03-17 17:10:00,
2013-03-17 12:15:00,72.7,61.9,29.76,SW,222,5.8,5.8,69,0.00,CLR,,0.00,WeatherDisplay:10.37,2013-03-17 17:15:00,
2013-03-17 12:20:00,72.9,61.7,29.76,NW,304,3.5,3.5,68,0.00,CLR,,0.00,WeatherDisplay:10.37,2013-03-17 17:20:00,
2013-03-17 12:25:00,73.0,61.8,29.75,SW,235,4.6,4.6,68,0.00,CLR,,0.00,WeatherDisplay:10.37,2013-03-17 17:25:00,
2013-03-17 12:30:00,73.3,61.3,29.75,ENE,66,4.6,4.6,66,0.00,CLR,,0.00,WeatherDisplay:10.37,2013-03-17 17:30:00,
2013-03-17 12:35:00,73.7,61.6,29.75,SW,219,6.0,6.0,66,0.00,CLR,,0.00,WeatherDisplay:10.37,2013-03-17 17:35:00,
2013-03-17 12:40:00,74.1,62.0,29.74,SSE,159,3.5,3.5,66,0.00,CLR,,0.00,WeatherDisplay:10.37,2013-03-17 17:40:00,
2013-03-17 12:45:00,74.7,62.6,29.74,WSW,249,2.3,2.3,66,0.00,CLR,,0.00,WeatherDisplay:10.37,2013-03-17 17:45:00,
2013-03-17 12:50:00,75.1,62.1,29.74,WSW,254,5.8,5.8,64,0.00,CLR,,0.00,WeatherDisplay:10.37,2013-03-17 17:50:00,
2013-03-17 12:55:00,75.0,62.0,29.73,East,82,3.5,3.5,64,0.00,CLR,,0.00,WeatherDisplay:10.37,2013-03-17 17:55:00,
2013-03-17 13:00:00,75.5,61.6,29.74,SW,236,6.9,6.9,62,0.00,CLR,,0.00,WeatherDisplay:10.37,2013-03-17 18:00:00,
2013-03-17 13:05:00,76.0,61.6,29.73,SW,230,3.5,3.5,61,0.00,CLR,,0.00,WeatherDisplay:10.37,2013-03-17 18:05:00,
2013-03-17 13:10:00,76.6,62.1,29.73,ESE,107,4.0,4.0,61,0.00,CLR,,0.00,WeatherDisplay:10.37,2013-03-17 18:10:00,
2013-03-17 13:15:00,77.1,61.7,29.72,SW,234,3.5,3.5,59,0.00,CLR,,0.00,WeatherDisplay:10.37,2013-03-17 18:15:00,
2013-03-17 13:20:00,77.7,62.2,29.72,SSW,194,6.9,6.9,59,0.00,CLR,,0.00,WeatherDisplay:10.37,2013-03-17 18:20:00,
2013-03-17 13:25:00,78.4,61.9,29.72,SSE,166,8.1,8.1,57,0.00,CLR,,0.00,WeatherDisplay:10.37,2013-03-17 18:25:00,
2013-03-17 13:30:00,78.9,62.4,29.72,SE,126,3.5,3.5,57,0.00,CLR,,0.00,WeatherDisplay:10.37,2013-03-17 18:30:00,
2013-03-17 13:35:00,79.4,62.3,29.71,NE,51,3.5,3.5,56,0.00,CLR,,0.00,WeatherDisplay:10.37,2013-03-17 18:35:00,
2013-03-17 13:40:00,79.8,62.7,29.71,SE,137,3.5,3.5,56,0.00,CLR,,0.00,WeatherDisplay:10.37,2013-03-17 18:40:00,
2013-03-17 13:45:00,80.2,62.6,29.71,South,172,6.9,6.9,55,0.00,CLR,,0.00,WeatherDisplay:10.37,2013-03-17 18:45:00,
2013-03-17 13:50:00,80.7,62.5,29.70,SE,146,8.1,8.1,54,0.00,CLR,,0.00,WeatherDisplay:10.37,2013-03-17 18:50:00,
2013-03-17 13:55:00,81.1,62.3,29.70,South,169,6.9,6.9,53,0.00,CLR,,0.00,WeatherDisplay:10.37,2013-03-17 18:55:00,
2013-03-17 14:00:00,81.0,62.3,29.69,SSW,192,10.4,10.4,53,0.00,CLR,,0.00,WeatherDisplay:10.37,2013-03-17 19:00:00,
2013-03-17 14:05:00,81.0,62.3,29.69,ENE,77,4.6,4.6,53,0.00,CLR,,0.00,WeatherDisplay:10.37,2013-03-17 19:05:00,
2013-03-17 14:10:00,81.3,62.0,29.69,South,184,8.0,8.0,52,0.00,CLR,,0.00,WeatherDisplay:10.37,2013-03-17 19:10:00,
2013-03-17 14:15:00,81.6,62.3,29.69,SSE,158,6.9,6.9,52,0.00,CLR,,0.00,WeatherDisplay:10.37,2013-03-17 19:15:00,
2013-03-17 14:20:00,81.9,62.5,29.68,SSW,202,4.6,4.6,52,0.00,CLR,,0.00,WeatherDisplay:10.37,2013-03-17 19:20:00,
2013-03-17 14:25:00,82.4,62.5,29.68,SW,232,6.9,6.9,51,0.00,CLR,,0.00,WeatherDisplay:10.37,2013-03-17 19:25:00,
2013-03-17 14:30:00,82.5,62.5,29.67,WSW,241,6.9,6.9,51,0.00,CLR,,0.00,WeatherDisplay:10.37,2013-03-17 19:30:00,
2013-03-17 14:35:00,82.8,62.3,29.67,SW,223,6.9,6.9,50,0.00,CLR,,0.00,WeatherDisplay:10.37,2013-03-17 19:35:00,
2013-03-17 14:40:00,83.0,61.9,29.67,SE,131,5.8,5.8,49,0.00,CLR,,0.00,WeatherDisplay:10.37,2013-03-17 19:40:00,
2013-03-17 14:45:00,83.0,62.4,29.67,ESE,121,8.1,8.1,50,0.00,CLR,,0.00,WeatherDisplay:10.37,2013-03-17 19:45:00,
2013-03-17 14:50:00,82.9,62.4,29.67,South,174,5.8,5.8,50,0.00,CLR,,0.00,WeatherDisplay:10.37,2013-03-17 19:50:00,
2013-03-17 14:55:00,82.8,61.7,29.67,SSW,199,6.9,6.9,49,0.00,CLR,,0.00,WeatherDisplay:10.37,2013-03-17 19:55:00,
2013-03-17 15:00:00,82.8,62.3,29.66,SE,140,4.6,4.6,50,0.00,CLR,,0.00,WeatherDisplay:10.37,2013-03-17 20:00:00,
2013-03-17 15:05:00,82.8,62.3,29.66,SSW,193,5.8,5.8,50,0.00,CLR,,0.00,WeatherDisplay:10.37,2013-03-17 20:05:00,
2013-03-17 15:10:00,82.9,61.8,29.66,SW,217,8.1,8.1,49,0.00,CLR,,0.00,WeatherDisplay:10.37,2013-03-17 20:10:00,
2013-03-17 15:15:00,83.0,61.9,29.65,WNW,291,3.5,3.5,49,0.00,CLR,,0.00,WeatherDisplay:10.37,2013-03-17 20:15:00,
2013-03-17 15:20:00,82.9,61.8,29.65,South,177,5.8,5.8,49,0.00,CLR,,0.00,WeatherDisplay:10.37,2013-03-17 20:20:00,
2013-03-17 15:25:00,83.0,61.3,29.65,WNW,301,4.6,4.6,48,0.00,CLR,,0.00,WeatherDisplay:10.37,2013-03-17 20:25:00,
2013-03-17 15:30:00,83.4,61.7,29.64,South,182,3.5,3.5,48,0.00,CLR,,0.00,WeatherDisplay:10.37,2013-03-17 20:30:00,
2013-03-17 15:35:00,83.4,61.7,29.64,South,179,3.5,3.5,48,0.00,CLR,,0.00,WeatherDisplay:10.37,2013-03-17 20:35:00,
2013-03-17 15:40:00,83.2,60.9,29.64,SSE,147,6.9,6.9,47,0.00,CLR,,0.00,WeatherDisplay:10.37,2013-03-17 20:40:00,
2013-03-17 15:45:00,83.2,60.9,29.64,WSW,246,3.5,3.5,47,0.00,CLR,,0.00,WeatherDisplay:10.37,2013-03-17 20:45:00,
2013-03-17 15:50:00,83.4,61.1,29.64,South,172,2.3,2.3,47,0.00,CLR,,0.00,WeatherDisplay:10.37,2013-03-17 20:50:00,
2013-03-17 15:55:00,83.5,61.7,29.63,SE,137,6.9,6.9,48,0.00,CLR,,0.00,WeatherDisplay:10.37,2013-03-17 20:55:00,
2013-03-17 16:00:00,83.4,61.1,29.63,South,184,2.3,2.3,47,0.00,CLR,,0.00,WeatherDisplay:10.37,2013-03-17 21:00:00,
2013-03-17 16:05:00,83.2,61.5,29.63,NE,36,1.1,1.1,48,0.00,CLR,,0.00,WeatherDisplay:10.37,2013-03-17 21:05:00,
2013-03-17 16:10:00,83.1,61.4,29.63,SW,231,3.5,3.5,48,0.00,CLR,,0.00,WeatherDisplay:10.37,2013-03-17 21:10:00,
2013-03-17 16:15:00,83.1,60.8,29.62,NW,307,4.6,4.6,47,0.00,CLR,,0.00,WeatherDisplay:10.37,2013-03-17 21:15:00,
2013-03-17 16:20:00,83.2,60.3,29.62,SSE,163,6.9,6.9,46,0.00,CLR,,0.00,WeatherDisplay:10.37,2013-03-17 21:20:00,
2013-03-17 16:25:00,83.4,59.8,29.62,West,267,9.2,9.2,45,0.00,CLR,,0.00,WeatherDisplay:10.37,2013-03-17 21:25:00,
2013-03-17 16:30:00,83.8,59.6,29.62,WSW,246,3.5,3.5,44,0.00,CLR,,0.00,WeatherDisplay:10.37,2013-03-17 21:30:00,
2013-03-17 16:35:00,83.8,59.6,29.62,West,259,4.6,4.6,44,0.00,CLR,,0.00,WeatherDisplay:10.37,2013-03-17 21:35:00,
2013-03-17 16:40:00,83.8,59.6,29.62,WNW,291,1.1,1.1,44,0.00,CLR,,0.00,WeatherDisplay:10.37,2013-03-17 21:40:00,
2013-03-17 16:45:00,83.6,60.6,29.62,ESE,113,5.8,5.8,46,0.00,CLR,,0.00,WeatherDisplay:10.37,2013-03-17 21:45:00,
2013-03-17 16:50:00,83.7,61.3,29.62,SSE,155,2.3,2.3,47,0.00,CLR,,0.00,WeatherDisplay:10.37,2013-03-17 21:50:00,
2013-03-17 16:55:00,83.8,61.4,29.61,SSW,197,3.5,3.5,47,0.00,CLR,,0.00,WeatherDisplay:10.37,2013-03-17 21:55:00,
2013-03-17 17:00:00,83.9,60.9,29.61,SSW,194,3.5,3.5,46,0.00,CLR,,0.00,WeatherDisplay:10.37,2013-03-17 22:00:00,